Regional Weather Roundup
Issued by NWS

Home | Current Version | Previous Version | Text Only | Print | Product List | Glossary On
Versions: 1 2 3 4 5 6 7 8 9 10 11 12 13 14 15 16 17 18 19 20 21 22 23 24 25 26 27 28 29 30 31 32 33 34 35 36 37 38 39 40 41 42 43 44 45 46 47 48 49 50
000
ASUS46 KPQR 211811
RWROR

OREGON REGIONAL WEATHER ROUNDUP
NATIONAL WEATHER SERVICE PORTLAND OR
1100 AM PDT TUE OCT 21 2014

NOTE: "FAIR" INDICATES FEW OR NO CLOUDS BELOW 12,000 FEET WITH
NO SIGNIFICANT WEATHER AND/OR OBSTRUCTIONS TO VISIBILITY.

ORZ001>013-211900-
NORTHWEST OREGON


CITY           SKY/WX    TMP DP  RH WIND       PRES   REMARKS
ASTORIA        NOT AVBL
PORTLAND       NOT AVBL
VANCOUVER WA   NOT AVBL
SCAPPOOSE      NOT AVBL
HILLSBORO      NOT AVBL
AURORA         NOT AVBL
MCMINNVILLE    NOT AVBL
SALEM          NOT AVBL
EUGENE         NOT AVBL
$$

ORZ021-028-211900-
SOUTHWEST OREGON


CITY           SKY/WX    TMP DP  RH WIND       PRES   REMARKS
NORTH BEND     NOT AVBL
ROSEBURG       NOT AVBL
MEDFORD        NOT AVBL
$$

ORZ009-041-211900-
COLUMBIA GORGE


CITY           SKY/WX    TMP DP  RH WIND       PRES   REMARKS
TROUTDALE      NOT AVBL
$$

ORZ029>031-042>050-061>064-211900-
EASTERN OREGON


CITY           SKY/WX    TMP DP  RH WIND       PRES   REMARKS
REDMOND        NOT AVBL
BEND           NOT AVBL
KLAMATH FALLS  NOT AVBL
HERMISTON      NOT AVBL
PENDLETON      NOT AVBL
MEACHAM        NOT AVBL
LA GRANDE      NOT AVBL
BAKER CITY     NOT AVBL
BURNS          NOT AVBL
ROME           NOT AVBL
ONTARIO        NOT AVBL
$$



USA.gov is the U.S. government's official web portal to all federal, state and local government web resources and services.